Weather History for KPBH - October, 2012

Change the Weather History Date:

Saturday, October 6, 2012

  Actual Average (KRHI) Record (KRHI)
Temperature  
Mean Temperature 38 °F 47 °F  
Max Temperature 42 °F 58 °F 84 °F (1963)
Min Temperature 33 °F 37 °F 19 °F (2001)
Degree Days  
Heating Degree Days 28 18  
Month to date heating degree days 103  
Since 1 July heating degree days 535  
Cooling Degree Days 0 0  
Month to date cooling degree days 0  
Year to date cooling degree days 259  
Moisture  
Dew Point 30 °F    
Average Humidity 77    
Maximum Humidity 100    
Minimum Humidity 56    
Precipitation  
Precipitation 0.00 in 0.12 in 2.80 in (1911)
Month to date precipitation 0.72  
Year to date precipitation 25.80  
Snow  
Snow 0.00 in - T in (2012)
Month to date snowfall  
Since 1 July snowfall  
Since 1 September snowfall  
Snow Depth -    
Sea Level Pressure  
Sea Level Pressure 30.12 in    
Wind  
Wind Speed 6 mph (NW)    
Max Wind Speed 13 mph    
Max Gust Speed 22 mph    
Visibility 8 miles    
Events Snow    
T = Trace of Precipitation, MM = Missing Value Source: NWS Daily Summary

Daily Weather History Graph

Daily Weather History Graph

Search for Another Location

Airport or City:

Trip Planner

Search our weather history database for the weather conditions in past years. The results will help you decide how hot, cold, wet, or windy it might be!

Date:

Astronomy

Oct. 06, 2012 Rise Set
Actual Time 7:06 AM CDT 6:31 PM CDT
Civil Twilight 6:37 AM CDT 7:01 PM CDT
Nautical Twilight 6:02 AM CDT 7:35 PM CDT
Astronomical Twilight 5:28 AM CDT 8:10 PM CDT
Moon 10:33 PM CDT (10/6) 1:15 PM CDT (10/6)
Length of Visible Light 12h 23m
Length of Day
11h 24m
Waning Gibbous, 65% of the Moon is Illuminated
Oct 6
Waning Gibbous
Oct 8
Last Quarter
Oct 15
New
Oct 21
First Quarter
Oct 29
Full

Hourly Weather History & Observations

Time (CDT) Temp. Windchill Dew Point Humidity Pressure Visibility Wind Dir Wind Speed Gust Speed Precip Events Conditions
12:15 AM 35.6 °F 29.9 °F 33.8 °F 93% 29.99 in 7.0 mi West 6.9 mph - N/A Snow Light Snow
12:35 AM 35.6 °F 32.8 °F 33.8 °F 93% 29.99 in 5.0 mi WNW 3.5 mph - N/A Snow Light Snow
12:55 AM 35.6 °F 29.9 °F 33.8 °F 93% 29.99 in 5.0 mi West 6.9 mph - N/A Snow Light Snow
1:15 AM 35.6 °F 30.7 °F 33.8 °F 93% 29.99 in 7.0 mi WNW 5.8 mph - N/A Snow Light Snow
1:55 AM 35.6 °F 29.9 °F 33.8 °F 93% 30.00 in 5.0 mi WNW 6.9 mph - N/A Snow Light Snow
2:15 AM 35.6 °F 29.2 °F 33.8 °F 93% 30.00 in 7.0 mi WNW 8.1 mph - N/A Snow Light Snow
2:35 AM 35.6 °F 28.0 °F 33.8 °F 93% 30.00 in 7.0 mi WNW 10.4 mph - N/A Snow Light Snow
2:55 AM 35.6 °F 29.2 °F 33.8 °F 93% 30.00 in 10.0 mi NNW 8.1 mph - N/A   Overcast
3:15 AM 35.6 °F 29.2 °F 33.8 °F 93% 30.01 in 10.0 mi NW 8.1 mph - N/A   Overcast
3:35 AM 35.6 °F 29.9 °F 33.8 °F 93% 30.01 in 5.0 mi NW 6.9 mph - N/A Snow Light Snow
3:55 AM 35.6 °F 31.7 °F 33.8 °F 93% 30.01 in 3.0 mi NW 4.6 mph - N/A Snow Light Snow
4:35 AM 35.6 °F 30.7 °F 33.8 °F 93% 30.03 in 7.0 mi NW 5.8 mph - N/A Snow Light Snow
4:55 AM 35.6 °F 30.7 °F 33.8 °F 93% 30.03 in 10.0 mi WNW 5.8 mph - N/A Snow Light Snow
5:15 AM 35.6 °F 32.8 °F 33.8 °F 93% 30.03 in 3.0 mi WNW 3.5 mph - N/A Snow Light Snow
5:35 AM 35.6 °F 29.9 °F 33.8 °F 93% 30.04 in 7.0 mi NW 6.9 mph - N/A   Overcast
5:55 AM 35.6 °F 30.7 °F 33.8 °F 93% 30.05 in 7.0 mi WNW 5.8 mph - N/A   Overcast
6:15 AM 35.6 °F 31.7 °F 33.8 °F 93% 30.05 in 4.0 mi NW 4.6 mph - N/A Snow Light Snow
6:35 AM 33.8 °F 29.6 °F 33.8 °F 100% 30.06 in 1.8 mi NW 4.6 mph - N/A Snow Light Snow
6:55 AM 33.8 °F 29.6 °F 32.0 °F 93% 30.07 in 10.0 mi NW 4.6 mph - N/A   Mostly Cloudy
7:15 AM 33.8 °F 30.8 °F 32.0 °F 93% 30.08 in 10.0 mi WNW 3.5 mph - N/A   Mostly Cloudy
7:35 AM 33.8 °F 29.6 °F 33.8 °F 100% 30.08 in 3.0 mi West 4.6 mph - N/A Snow Light Snow
7:55 AM 35.6 °F 32.8 °F 33.8 °F 93% 30.09 in 7.0 mi West 3.5 mph - N/A   Overcast
8:15 AM 35.6 °F 30.7 °F 33.8 °F 93% 30.10 in 4.0 mi WNW 5.8 mph - N/A Snow Light Snow
8:35 AM 35.6 °F 31.7 °F 33.8 °F 93% 30.10 in 10.0 mi NW 4.6 mph - N/A   Overcast
8:55 AM 35.6 °F 29.9 °F 33.8 °F 93% 30.11 in 7.0 mi NW 6.9 mph - N/A   Overcast
9:15 AM 35.6 °F 30.7 °F 33.8 °F 93% 30.12 in 7.0 mi NW 5.8 mph - N/A   Overcast
9:35 AM 35.6 °F 29.9 °F 33.8 °F 93% 30.13 in 2.5 mi NNW 6.9 mph - N/A Snow Light Snow
9:55 AM 37.4 °F 32.8 °F 33.8 °F 87% 30.13 in 10.0 mi NNW 5.8 mph - N/A   Overcast
10:15 AM 37.4 °F 30.8 °F 33.8 °F 87% 30.13 in 10.0 mi NNW 9.2 mph - N/A   Overcast
10:35 AM 37.4 °F 31.4 °F 33.8 °F 87% 30.14 in 7.0 mi NNW 8.1 mph - N/A   Overcast
10:55 AM 37.4 °F 30.8 °F 35.6 °F 93% 30.15 in 10.0 mi NNW 9.2 mph - N/A   Overcast
11:15 AM 37.4 °F 30.8 °F 33.8 °F 87% 30.15 in 1.8 mi North 9.2 mph 16.1 mph N/A Snow Light Snow
11:35 AM 41.0 °F 34.3 °F 32.0 °F 70% 30.15 in 10.0 mi NNW 11.5 mph 16.1 mph N/A   Scattered Clouds
11:55 AM 37.4 °F 32.1 °F 33.8 °F 87% 30.16 in 2.5 mi NW 6.9 mph 21.9 mph N/A   Mostly Cloudy
12:15 PM 39.2 °F 31.6 °F 33.8 °F 81% 30.16 in 10.0 mi NNE 12.7 mph 16.1 mph N/A   Mostly Cloudy
12:35 PM 41.0 °F 35.8 °F 30.2 °F 65% 30.16 in 10.0 mi North 8.1 mph 20.7 mph N/A   Mostly Cloudy
12:55 PM 37.4 °F 29.3 °F 33.8 °F 87% 30.17 in 10.0 mi NNE 12.7 mph 19.6 mph N/A   Overcast
1:15 PM 37.4 °F 32.1 °F 30.2 °F 75% 30.17 in 10.0 mi North 6.9 mph - N/A   Overcast
1:35 PM 39.2 °F 35.0 °F 28.4 °F 65% 30.16 in 10.0 mi NW 5.8 mph - N/A   Overcast
1:55 PM 42.8 °F 37.0 °F 28.4 °F 57% 30.16 in 10.0 mi NW 10.4 mph 19.6 mph N/A   Mostly Cloudy
2:15 PM 41.0 °F 34.3 °F 26.6 °F 57% 30.16 in 10.0 mi NNW 11.5 mph 17.3 mph N/A   Mostly Cloudy
2:35 PM 41.0 °F 37.1 °F 26.6 °F 57% 30.16 in 10.0 mi NW 5.8 mph - N/A   Overcast
2:55 PM 41.0 °F 35.2 °F 26.6 °F 57% 30.16 in 10.0 mi NW 9.2 mph - N/A   Mostly Cloudy
3:15 PM 41.0 °F 35.8 °F 26.6 °F 57% 30.17 in 10.0 mi NW 8.1 mph - N/A   Overcast
3:35 PM 41.0 °F 38.0 °F 26.6 °F 57% 30.17 in 10.0 mi NNW 4.6 mph - N/A   Overcast
4:15 PM 39.2 °F 35.9 °F 26.6 °F 61% 30.16 in 10.0 mi NW 4.6 mph - N/A   Overcast
4:35 PM 39.2 °F 35.0 °F 26.6 °F 61% 30.16 in 10.0 mi North 5.8 mph - N/A   Overcast
4:55 PM 39.2 °F - 28.4 °F 65% 30.16 in 10.0 mi Calm Calm - N/A   Overcast
5:15 PM 39.2 °F 35.9 °F 26.6 °F 61% 30.16 in 10.0 mi NNW 4.6 mph - N/A   Overcast
5:35 PM 39.2 °F - 26.6 °F 61% 30.16 in 10.0 mi Calm Calm - N/A   Overcast
5:55 PM 39.2 °F - 24.8 °F 56% 30.16 in 10.0 mi Calm Calm - N/A   Overcast
6:15 PM 39.2 °F - 26.6 °F 61% 30.16 in 10.0 mi Calm Calm - N/A   Overcast
6:35 PM 39.2 °F - 24.8 °F 56% 30.17 in 10.0 mi Calm Calm - N/A   Overcast
6:55 PM 39.2 °F - 24.8 °F 56% 30.17 in 10.0 mi Calm Calm - N/A   Overcast
7:15 PM 39.2 °F - 24.8 °F 56% 30.17 in 10.0 mi Calm Calm - N/A   Overcast
7:35 PM 39.2 °F - 24.8 °F 56% 30.18 in 10.0 mi Calm Calm - N/A   Overcast
7:55 PM 39.2 °F - 24.8 °F 56% 30.18 in 10.0 mi Calm Calm - N/A   Overcast
8:15 PM 39.2 °F - 24.8 °F 56% 30.18 in 10.0 mi Calm Calm - N/A   Overcast
8:35 PM 39.2 °F - 24.8 °F 56% 30.18 in 10.0 mi Calm Calm - N/A   Overcast
8:55 PM 39.2 °F - 24.8 °F 56% 30.18 in 10.0 mi Calm Calm - N/A   Overcast
9:15 PM 37.4 °F - 26.6 °F 65% 30.18 in 10.0 mi Calm Calm - N/A   Overcast
9:35 PM 37.4 °F - 26.6 °F 65% 30.18 in 10.0 mi Calm Calm - N/A   Overcast
9:55 PM 37.4 °F - 26.6 °F 65% 30.18 in 10.0 mi Calm Calm - N/A   Overcast
10:15 PM 37.4 °F - 26.6 °F 65% 30.18 in 10.0 mi Calm Calm - N/A   Overcast
10:35 PM 37.4 °F - 26.6 °F 65% 30.18 in 10.0 mi Calm Calm - N/A   Overcast
10:55 PM 37.4 °F - 26.6 °F 65% 30.17 in 10.0 mi Calm Calm - N/A   Overcast
11:15 PM 37.4 °F - 26.6 °F 65% 30.18 in 10.0 mi Calm Calm - N/A   Overcast
11:35 PM 37.4 °F - 26.6 °F 65% 30.17 in 10.0 mi Calm Calm - N/A   Overcast
11:55 PM 37.4 °F - 26.6 °F 65% 30.17 in 10.0 mi Calm Calm - N/A   Overcast